Wind_Speed
10 10 10 10 10 10 10 10 10 10 11 12 12 13 13 13 13 12 12 12 12 12 12 13 13 12 13 14 13 13 13 13 13 13 13 13 13 14 14 14 14 14 14
12 11 10 10 9 9 10 10 10 11 11 12 13 13 13 13 13 12 12 12 13 13 13 13 14 14 14 14 14 13 13 13 13 13 14 14 14 14 14 14 14 14 14
11 10 10 9 9 9 10 11 11 11 11 12 13 13 13 13 13 13 13 12 12 13 13 13 13 13 14 13 13 13 13 12 12 13 13 13 14 15 15 15 15 15 15
11 10 10 10 10 10 10 11 12 12 12 12 13 13 13 13 14 14 14 13 13 13 13 14 14 14 14 14 14 13 12 12 12 13 13 14 14 15 15 16 16 16 16
11 11 11 11 11 11 11 12 12 12 13 13 13 13 14 14 14 14 14 14 14 14 14 13 14 14 14 14 14 14 13 13 13 13 14 14 15 15 16 16 16 17 17
11 12 12 12 12 12 12 12 12 13 13 13 13 14 14 15 14 14 14 14 14 15 15 15 14 14 14 14 14 14 14 14 14 14 15 15 15 16 16 16 17 17 17
12 12 13 12 12 12 12 13 13 13 13 13 13 14 14 14 13 13 13 13 14 15 15 15 15 15 15 15 15 15 15 15 15 15 15 15 16 16 17 17 17 17 17
13 13 13 13 12 13 13 13 13 13 13 13 14 15 14 14 13 13 13 13 14 15 15 15 16 16 16 15 16 16 16 15 16 16 16 17 17 17 17 17 17 17 17
14 13 13 13 13 13 14 14 14 14 14 14 15 15 14 14 13 13 14 14 15 15 16 16 16 16 15 15 15 15 16 16 17 17 17 17 17 16 17 18 18 18 17
14 14 14 14 14 14 14 14 14 14 14 15 15 15 15 14 14 14 14 15 16 16 15 15 16 16 16 16 16 16 16 17 17 17 18 18 18 18 18 18 18 18 18
15 15 15 15 15 15 14 14 15 14 14 14 15 15 15 15 15 15 15 16 16 16 16 16 16 16 17 17 17 17 17 18 18 18 18 18 19 19 19 19 19 19 19
16 16 16 16 16 15 15 15 15 15 15 15 15 15 15 15 15 15 16 16 16 16 16 16 16 17 17 17 18 18 18 19 19 19 19 19 19 19 19 19 19 19 19
17 17 17 17 16 16 16 15 15 15 15 16 16 15 15 15 15 16 16 16 16 16 16 16 17 17 17 18 18 18 19 20 20 20 20 20 20 19 19 19 19 19 19
18 18 18 18 18 17 17 16 16 16 17 17 17 16 16 16 16 17 17 17 17 17 17 17 17 17 17 18 18 18 18 18 19 20 20 20 19 19 19 18 18 18 19
19 19 19 19 18 18 17 17 17 18 18 17 17 17 17 16 17 17 17 17 18 17 18 18 18 17 17 18 18 18 18 18 19 20 20 19 19 19 18 18 17 17 18
20 20 19 19 19 19 18 18 18 18 18 18 17 17 17 18 18 18 18 18 18 18 18 18 18 18 18 18 19 19 19 19 20 20 19 19 18 18 17 17 17 17 18
21 20 20 20 20 20 20 20 20 19 19 18 18 18 18 18 18 18 18 19 19 18 18 18 18 18 18 19 19 19 20 19 19 19 19 19 18 18 18 18 18 18 18
21 21 21 22 22 22 21 21 21 21 20 18 18 18 18 18 19 19 19 20 20 19 19 19 19 19 19 18 19 20 20 20 20 19 19 19 19 19 19 19 19 19 19
21 21 22 22 22 23 22 22 22 21 20 20 19 19 19 19 19 20 20 20 20 20 20 20 20 19 19 19 19 19 19 20 20 19 19 19 19 19 19 20 20 20 20
22 22 21 22 22 23 23 22 22 22 21 21 21 21 20 20 20 21 21 21 21 21 21 21 20 20 20 20 20 20 20 20 20 19 19 19 19 19 19 20 20 21 21
23 23 23 23 23 23 22 22 23 22 22 22 23 23 23 23 23 22 22 23 23 23 22 21 21 21 20 21 20 20 20 20 20 20 20 20 20 20 21 21 22 22 22
24 25 25 24 24 24 24 24 24 24 24 24 24 24 24 24 24 24 25 24 24 23 23 22 21 21 21 21 21 21 21 21 21 20 20 21 21 21 21 22 22 23 23
26 26 26 26 26 26 26 26 26 26 25 25 25 25 25 25 26 26 26 25 25 25 24 23 23 23 22 22 22 22 22 22 21 21 21 21 22 22 23 23 23 24 25
28 28 28 27 27 27 27 27 27 27 27 26 25 26 26 26 26 26 26 25 25 25 25 24 24 24 24 24 24 23 23 23 23 22 22 22 23 24 24 24 24 25 25
28 29 28 29 28 28 28 28 28 28 28 27 26 26 26 26 26 26 26 25 25 25 26 26 26 26 26 26 25 25 25 25 24 24 23 24 24 24 25 26 25 26 26
28 28 28 28 28 28 29 28 29 29 28 28 27 27 27 27 27 27 26 26 26 25 26 26 27 27 27 26 26 26 26 26 26 26 26 26 25 25 26 26 26 26 27
Wind_Direction
281 290 293 293 292 294 296 294 297 296 297 297 296 295 294 293 292 288 283 282 281 279 280 280 277 275 275 275 275 277 276 274 274 274 273 272 272 274 273 273 272 273 273
285 289 293 294 295 295 294 297 298 295 295 296 295 294 294 293 290 287 283 280 279 279 279 278 276 274 276 277 278 279 279 275 272 272 273 273 273 273 274 274 273 273 274
283 287 291 295 297 295 295 298 299 297 297 299 299 297 297 296 292 288 284 280 278 280 282 281 276 274 277 278 280 281 281 278 274 272 272 273 273 274 273 273 273 272 272
283 286 286 288 292 293 294 298 297 297 297 298 298 296 294 293 291 288 283 278 277 279 281 283 277 274 277 278 279 279 277 278 277 276 275 274 275 276 276 273 271 271 272
283 283 279 281 286 292 294 296 296 297 296 296 298 297 294 291 289 287 283 279 277 277 278 280 277 274 275 276 277 276 276 275 274 277 278 278 277 277 277 275 273 271 270
281 281 278 278 283 290 294 297 296 295 295 296 298 299 296 292 290 289 285 281 280 280 278 277 276 274 277 275 275 276 278 278 277 278 279 279 278 279 278 276 275 273 271
279 280 278 277 282 290 292 294 293 293 293 293 295 297 296 293 289 289 289 283 283 283 281 278 275 273 275 275 274 275 277 278 279 279 279 279 281 280 279 277 276 273 269
280 281 279 282 287 291 291 290 289 291 291 290 293 295 295 292 290 288 287 288 287 284 280 277 275 274 274 276 275 275 277 277 278 280 280 280 281 282 280 277 274 272 269
280 282 284 286 290 292 292 291 290 292 292 291 293 296 294 291 288 287 287 287 288 287 281 278 276 274 273 274 274 275 276 276 278 280 281 283 283 284 284 280 275 270 267
281 281 284 286 288 289 291 291 291 292 292 290 291 293 291 290 287 288 287 288 290 291 284 279 277 275 274 273 274 274 276 278 280 282 282 282 282 283 283 282 278 273 269
284 282 282 285 286 287 289 290 290 288 288 290 290 290 288 287 286 287 287 290 290 289 286 281 277 276 275 275 274 276 278 280 282 282 283 283 283 281 280 280 279 275 271
285 284 284 284 285 285 286 287 290 288 288 290 289 286 285 286 287 288 289 290 291 288 287 284 278 277 277 276 273 276 278 281 282 282 283 284 284 283 280 279 278 275 271
282 281 282 282 283 285 286 288 289 288 288 289 288 286 284 285 288 288 288 288 290 288 288 286 280 278 278 278 276 276 278 280 281 283 284 284 283 282 281 279 277 274 270
281 280 280 280 281 283 283 285 287 289 288 289 288 286 284 284 285 287 288 288 288 288 289 288 283 280 279 279 278 279 280 281 282 284 286 284 282 282 281 280 278 274 271
280 280 279 279 278 280 280 281 283 288 291 289 289 287 283 282 282 285 287 287 287 288 289 288 286 283 280 279 278 279 280 280 283 285 285 283 282 281 281 280 277 274 271
278 279 278 279 279 278 279 281 283 285 287 288 288 286 282 280 281 284 286 286 287 288 288 288 286 284 281 280 278 276 278 279 283 284 284 282 281 281 281 280 278 276 273
274 276 277 279 280 279 279 280 282 283 284 284 285 285 284 282 282 284 285 284 285 287 288 288 287 284 282 280 279 277 277 279 283 285 284 282 280 279 279 278 278 277 276
273 273 275 277 279 279 280 282 282 282 282 284 285 285 284 282 281 283 283 284 283 285 287 287 287 286 283 280 279 280 280 280 283 285 284 282 280 279 278 278 278 278 278
273 275 276 276 279 281 282 282 281 281 281 282 283 285 284 284 282 281 281 282 283 284 285 284 286 286 285 282 281 280 279 281 282 282 283 282 280 279 279 277 278 278 278
274 276 278 278 279 281 281 280 280 280 280 281 282 284 284 283 283 282 281 280 281 281 283 283 284 285 284 282 281 280 279 280 281 281 282 282 281 279 278 278 278 280 281
274 276 278 278 279 280 282 281 280 281 281 280 282 284 285 284 284 283 282 281 280 280 281 282 282 283 283 281 280 280 280 279 280 280 280 281 282 280 279 280 280 281 281
274 275 276 277 277 279 280 281 282 282 282 282 282 283 283 284 283 283 283 283 282 281 281 282 282 282 282 281 280 279 280 279 280 280 281 281 282 280 280 281 282 280 280
273 273 274 275 277 278 279 280 281 282 283 283 282 284 284 284 283 283 282 282 281 281 280 281 281 281 280 280 280 279 280 279 279 280 281 281 282 282 283 283 281 279 281
273 274 274 275 276 277 279 279 278 279 281 282 283 283 283 283 283 284 284 283 282 281 280 280 279 279 279 279 278 278 280 280 279 280 281 282 283 284 284 284 282 280 282
274 274 274 274 276 277 278 279 279 279 279 280 282 282 283 283 282 283 284 284 284 283 280 279 277 277 278 279 277 277 278 278 278 279 280 282 283 284 285 284 283 283 282
273 273 274 275 275 276 278 279 279 279 280 280 281 282 282 282 282 282 281 281 282 282 281 279 278 277 278 277 277 278 278 277 276 278 280 281 281 283 284 284 284 284 284
Height
5842 5841 5840 5839 5838 5837 5837 5836 5835 5834 5833 5832 5831 5830 5829 5828 5827 5826 5825 5825 5824 5823 5823 5822 5822 5822 5822 5821 5821 5820 5820 5820 5820 5820 5820 5820 5820 5820 5820 5820 5821 5821 5821
5839 5838 5837 5836 5835 5835 5834 5833 5832 5831 5830 5829 5828 5827 5826 5825 5824 5823 5822 5821 5821 5820 5820 5819 5818 5818 5818 5818 5817 5816 5816 5816 5816 5816 5817 5817 5817 5817 5817 5817 5817 5817 5817
5836 5835 5834 5834 5833 5832 5831 5830 5829 5828 5827 5826 5825 5824 5822 5821 5821 5820 5819 5818 5818 5817 5816 5815 5815 5815 5814 5814 5813 5813 5812 5812 5812 5812 5813 5813 5813 5813 5813 5813 5813 5813 5813
5833 5832 5831 5831 5830 5829 5828 5827 5826 5825 5824 5823 5822 5821 5820 5819 5818 5816 5816 5815 5814 5813 5813 5812 5811 5811 5810 5810 5810 5809 5809 5808 5808 5808 5808 5809 5809 5809 5809 5809 5808 5809 5809
5830 5829 5828 5828 5827 5826 5825 5824 5823 5822 5821 5820 5818 5817 5816 5815 5813 5812 5812 5811 5810 5809 5809 5808 5807 5807 5806 5806 5806 5806 5805 5805 5804 5804 5804 5804 5804 5804 5804 5804 5804 5804 5804
5827 5826 5825 5825 5824 5823 5822 5821 5819 5818 5817 5816 5815 5813 5812 5810 5809 5808 5807 5806 5806 5805 5805 5804 5803 5803 5803 5802 5802 5802 5802 5801 5801 5801 5800 5800 5800 5799 5799 5799 5799 5799 5799
5824 5823 5822 5821 5821 5820 5819 5817 5816 5815 5813 5812 5811 5809 5807 5806 5805 5804 5803 5802 5801 5800 5800 5800 5799 5799 5799 5799 5798 5798 5798 5797 5797 5797 5796 5796 5795 5795 5795 5795 5795 5795 5795
5820 5820 5819 5818 5817 5816 5815 5814 5812 5811 5809 5808 5807 5805 5804 5802 5801 5800 5799 5798 5797 5796 5795 5795 5795 5795 5794 5794 5794 5794 5794 5793 5793 5792 5792 5791 5791 5790 5790 5790 5790 5790 5790
5817 5816 5815 5814 5813 5812 5811 5810 5808 5807 5805 5804 5803 5801 5800 5798 5797 5797 5796 5795 5794 5793 5791 5791 5790 5790 5790 5790 5790 5790 5789 5789 5788 5788 5787 5787 5786 5785 5785 5784 5784 5785 5785
5813 5812 5811 5810 5809 5808 5807 5806 5804 5803 5801 5800 5798 5797 5796 5795 5794 5793 5792 5791 5789 5788 5787 5786 5786 5786 5786 5785 5785 5785 5785 5785 5784 5783 5783 5782 5781 5781 5780 5779 5779 5779 5780
5808 5808 5807 5806 5805 5804 5803 5802 5800 5799 5797 5796 5794 5793 5792 5791 5790 5789 5787 5786 5785 5784 5783 5782 5781 5781 5781 5781 5781 5780 5780 5780 5779 5778 5778 5777 5776 5775 5774 5774 5773 5773 5774
5804 5803 5803 5802 5800 5799 5798 5797 5796 5795 5793 5792 5790 5789 5788 5787 5786 5785 5783 5782 5781 5780 5779 5778 5777 5776 5776 5776 5776 5775 5775 5775 5774 5773 5773 5771 5770 5769 5769 5768 5767 5768 5768
5800 5799 5798 5797 5796 5795 5794 5793 5792 5791 5789 5788 5786 5785 5783 5782 5781 5780 5779 5778 5776 5775 5774 5773 5772 5772 5771 5771 5771 5770 5770 5770 5769 5768 5767 5766 5765 5764 5763 5762 5762 5762 5762
5795 5794 5793 5792 5791 5790 5789 5788 5787 5785 5784 5783 5781 5780 5779 5778 5777 5775 5774 5773 5772 5771 5770 5768 5767 5767 5766 5766 5765 5765 5764 5764 5764 5763 5761 5760 5759 5758 5757 5757 5757 5757 5757
5790 5789 5788 5787 5786 5785 5784 5783 5782 5780 5779 5778 5777 5775 5774 5773 5771 5770 5769 5768 5767 5766 5765 5764 5762 5762 5761 5760 5760 5759 5759 5759 5758 5757 5756 5755 5754 5753 5752 5752 5751 5751 5752
5784 5783 5782 5782 5781 5780 5779 5778 5776 5775 5774 5773 5772 5770 5769 5768 5766 5765 5764 5763 5762 5761 5759 5758 5757 5756 5756 5755 5755 5754 5754 5753 5752 5751 5750 5750 5749 5748 5747 5747 5746 5747 5747
5778 5777 5777 5776 5775 5774 5773 5772 5771 5770 5768 5767 5766 5765 5764 5763 5761 5760 5759 5758 5757 5756 5754 5753 5752 5751 5750 5749 5749 5748 5748 5748 5747 5746 5745 5744 5744 5743 5742 5742 5742 5741 5741
5772 5771 5771 5770 5769 5768 5767 5766 5765 5764 5763 5762 5761 5759 5758 5757 5756 5755 5754 5752 5751 5750 5749 5748 5747 5746 5745 5744 5743 5743 5743 5742 5742 5741 5740 5739 5738 5738 5738 5737 5737 5736 5736
5765 5765 5764 5763 5763 5762 5761 5760 5759 5758 5757 5756 5755 5754 5753 5751 5750 5749 5748 5746 5745 5744 5743 5742 5741 5740 5739 5739 5738 5737 5737 5736 5736 5735 5734 5733 5733 5733 5732 5732 5731 5731 5730
5759 5758 5757 5757 5756 5755 5754 5754 5753 5752 5751 5750 5749 5748 5747 5745 5744 5743 5741 5740 5739 5738 5737 5736 5735 5735 5734 5733 5732 5732 5731 5731 5730 5729 5729 5728 5727 5726 5726 5726 5726 5725 5724
5752 5751 5751 5750 5749 5748 5747 5746 5746 5745 5744 5743 5742 5741 5740 5738 5737 5736 5735 5733 5732 5731 5730 5730 5729 5728 5728 5727 5726 5726 5725 5725 5724 5723 5723 5722 5721 5720 5720 5720 5719 5719 5718
5744 5744 5743 5743 5742 5741 5740 5739 5738 5737 5736 5736 5734 5733 5733 5731 5730 5729 5727 5726 5725 5724 5724 5723 5723 5722 5721 5721 5720 5719 5719 5718 5718 5717 5716 5715 5715 5714 5713 5713 5712 5711 5710
5736 5735 5735 5734 5734 5733 5733 5732 5731 5730 5729 5728 5727 5726 5725 5724 5723 5721 5720 5719 5718 5717 5717 5716 5716 5715 5715 5714 5714 5713 5712 5712 5711 5710 5710 5709 5708 5707 5706 5706 5705 5704 5703
5728 5727 5727 5726 5726 5725 5724 5724 5723 5722 5721 5720 5719 5718 5717 5716 5715 5713 5712 5711 5710 5710 5709 5709 5708 5708 5708 5707 5707 5706 5705 5705 5704 5704 5703 5702 5701 5700 5699 5698 5697 5696 5695
5719 5718 5718 5717 5717 5716 5716 5715 5714 5713 5713 5712 5711 5710 5709 5708 5707 5706 5705 5704 5703 5702 5701 5701 5700 5700 5700 5699 5699 5698 5698 5697 5697 5696 5695 5695 5694 5693 5691 5690 5689 5688 5687
5710 5709 5709 5708 5708 5708 5707 5706 5706 5705 5704 5703 5703 5702 5701 5700 5699 5698 5697 5696 5695 5694 5693 5692 5692 5691 5691 5691 5690 5690 5690 5689 5689 5688 5688 5687 5686 5685 5683 5682 5681 5680 5678